TimeMST,TemperatureF,Dew PointF,Humidity,Sea Level PressureIn,VisibilityMPH,Wind Direction,Wind SpeedMPH,Gust SpeedMPH,PrecipitationIn,Events,Conditions,WindDirDegrees,DateUTC
12:10 AM,50.0,24.8,37,29.54,10.0,WSW,3.5,-,N/A,,Mostly Cloudy,240,2013-12-03 07:10:00
12:30 AM,44.6,26.6,49,29.54,10.0,SSW,8.1,-,N/A,,Mostly Cloudy,200,2013-12-03 07:30:00
12:50 AM,41.0,26.6,57,29.54,10.0,SSW,6.9,-,N/A,,Scattered Clouds,200,2013-12-03 07:50:00
1:10 AM,41.0,28.4,61,29.55,10.0,SW,6.9,-,N/A,,Mostly Cloudy,220,2013-12-03 08:10:00
1:30 AM,39.2,26.6,61,29.55,10.0,WSW,8.1,-,N/A,,Mostly Cloudy,240,2013-12-03 08:30:00
1:50 AM,37.4,26.6,65,29.55,10.0,WSW,8.1,-,N/A,,Mostly Cloudy,250,2013-12-03 08:50:00
2:10 AM,37.4,26.6,65,29.55,10.0,West,9.2,-,N/A,,Mostly Cloudy,260,2013-12-03 09:10:00
2:30 AM,39.2,26.6,61,29.54,10.0,WSW,9.2,-,N/A,,Overcast,240,2013-12-03 09:30:00
2:50 AM,37.4,26.6,65,29.53,10.0,SW,4.6,-,N/A,,Scattered Clouds,220,2013-12-03 09:50:00
3:10 AM,35.6,26.6,70,29.54,10.0,SW,5.8,-,N/A,,Scattered Clouds,230,2013-12-03 10:10:00
3:30 AM,33.8,26.6,75,29.54,10.0,West,8.1,-,N/A,,Mostly Cloudy,260,2013-12-03 10:30:00
3:50 AM,37.4,26.6,65,29.54,10.0,SSW,4.6,-,N/A,,Overcast,210,2013-12-03 10:50:00
4:10 AM,32.0,24.8,75,29.52,10.0,South,6.9,-,N/A,,Mostly Cloudy,170,2013-12-03 11:10:00
4:30 AM,32.0,24.8,75,29.50,10.0,South,9.2,-,N/A,,Scattered Clouds,190,2013-12-03 11:30:00
4:50 AM,32.0,24.8,75,29.50,10.0,SSW,8.1,-,N/A,,Scattered Clouds,210,2013-12-03 11:50:00
5:10 AM,30.2,23.0,75,29.50,10.0,SW,8.1,-,N/A,,Scattered Clouds,230,2013-12-03 12:10:00
5:30 AM,30.2,23.0,75,29.49,10.0,SW,8.1,-,N/A,,Scattered Clouds,230,2013-12-03 12:30:00
5:50 AM,30.2,23.0,75,29.49,10.0,SW,8.1,-,N/A,,Clear,220,2013-12-03 12:50:00
6:10 AM,32.0,24.8,75,29.49,10.0,WSW,8.1,-,N/A,,Clear,240,2013-12-03 13:10:00
6:30 AM,32.0,23.0,69,29.50,10.0,SW,6.9,-,N/A,,Clear,230,2013-12-03 13:30:00
6:50 AM,32.0,24.8,75,29.50,10.0,SSW,3.5,-,N/A,,Clear,210,2013-12-03 13:50:00
7:10 AM,33.8,24.8,70,29.50,10.0,South,4.6,-,N/A,,Scattered Clouds,190,2013-12-03 14:10:00
7:30 AM,32.0,26.6,80,29.49,10.0,South,5.8,-,N/A,,Mostly Cloudy,190,2013-12-03 14:30:00
7:50 AM,33.8,26.6,75,29.49,10.0,SSW,3.5,-,N/A,,Mostly Cloudy,210,2013-12-03 14:50:00
8:10 AM,35.6,26.6,70,29.50,10.0,SSW,3.5,-,N/A,,Mostly Cloudy,200,2013-12-03 15:10:00
8:30 AM,37.4,26.6,65,29.50,10.0,SSW,3.5,-,N/A,,Mostly Cloudy,210,2013-12-03 15:30:00
8:50 AM,41.0,28.4,61,29.49,10.0,SSW,5.8,-,N/A,,Mostly Cloudy,210,2013-12-03 15:50:00
9:10 AM,42.8,26.6,53,29.50,10.0,SW,10.4,-,N/A,,Mostly Cloudy,230,2013-12-03 16:10:00
9:30 AM,44.6,26.6,49,29.51,10.0,SW,9.2,-,N/A,,Overcast,230,2013-12-03 16:30:00
9:50 AM,44.6,28.4,53,29.53,10.0,North,8.1,-,N/A,,Overcast,10,2013-12-03 16:50:00
10:10 AM,44.6,26.6,49,29.54,10.0,NNW,8.1,-,N/A,,Overcast,330,2013-12-03 17:10:00
10:30 AM,44.6,28.4,53,29.54,10.0,NNE,12.7,16.1,N/A,,Overcast,20,2013-12-03 17:30:00
10:50 AM,41.0,30.2,65,29.54,10.0,NNE,15.0,19.6,N/A,,Scattered Clouds,30,2013-12-03 17:50:00
11:10 AM,39.2,30.2,70,29.54,10.0,NE,13.8,21.9,N/A,,Clear,40,2013-12-03 18:10:00
11:30 AM,37.4,30.2,75,29.54,10.0,NE,16.1,26.5,N/A,,Clear,40,2013-12-03 18:30:00
11:50 AM,39.2,30.2,70,29.55,10.0,NE,18.4,23.0,N/A,,Clear,40,2013-12-03 18:50:00
12:10 PM,39.2,30.2,70,29.56,10.0,NNE,20.7,24.2,N/A,,Clear,20,2013-12-03 19:10:00
12:30 PM,35.6,28.4,75,29.56,10.0,NNE,21.9,29.9,N/A,,Clear,20,2013-12-03 19:30:00
12:50 PM,33.8,26.6,75,29.58,10.0,North,24.2,29.9,N/A,,Mostly Cloudy,10,2013-12-03 19:50:00
1:10 PM,30.2,23.0,75,29.58,10.0,North,24.2,31.1,N/A,,Overcast,360,2013-12-03 20:10:00
1:30 PM,30.2,23.0,75,29.58,10.0,North,25.3,32.2,N/A,,Overcast,10,2013-12-03 20:30:00
1:50 PM,28.4,19.4,69,29.58,10.0,North,25.3,33.4,N/A,,Overcast,10,2013-12-03 20:50:00
2:10 PM,28.4,19.4,69,29.59,10.0,North,26.5,35.7,N/A,,Overcast,10,2013-12-03 21:10:00
2:30 PM,26.6,17.6,69,29.58,10.0,NNE,23.0,28.8,N/A,,Overcast,20,2013-12-03 21:30:00
2:50 PM,26.6,17.6,69,29.60,10.0,NNE,27.6,33.4,N/A,,Overcast,20,2013-12-03 21:50:00
3:10 PM,24.8,17.6,74,29.61,10.0,NNE,19.6,33.4,N/A,,Overcast,20,2013-12-03 22:10:00
3:30 PM,24.8,17.6,74,29.62,10.0,NNE,20.7,28.8,N/A,,Overcast,20,2013-12-03 22:30:00
3:50 PM,23.0,15.8,74,29.62,10.0,NNE,18.4,28.8,N/A,,Overcast,20,2013-12-03 22:50:00
4:10 PM,23.0,15.8,74,29.64,10.0,NNE,23.0,28.8,N/A,,Overcast,20,2013-12-03 23:10:00
4:30 PM,23.0,15.8,74,29.65,10.0,NNE,21.9,28.8,N/A,,Overcast,20,2013-12-03 23:30:00
4:50 PM,23.0,15.8,74,29.66,10.0,North,20.7,26.5,N/A,,Overcast,10,2013-12-03 23:50:00
5:10 PM,21.2,14.0,74,29.68,10.0,North,17.3,24.2,N/A,,Overcast,10,2013-12-04 00:10:00
5:30 PM,21.2,14.0,74,29.69,10.0,North,15.0,25.3,N/A,,Overcast,10,2013-12-04 00:30:00
5:50 PM,21.2,12.2,68,29.72,10.0,North,20.7,27.6,N/A,,Overcast,360,2013-12-04 00:50:00
6:10 PM,21.2,12.2,68,29.73,10.0,North,19.6,26.5,N/A,,Overcast,10,2013-12-04 01:10:00
6:30 PM,21.2,12.2,68,29.72,10.0,NNE,15.0,25.3,N/A,,Overcast,20,2013-12-04 01:30:00
6:50 PM,21.2,12.2,68,29.74,10.0,North,11.5,21.9,N/A,,Overcast,10,2013-12-04 01:50:00
7:10 PM,19.4,12.2,74,29.73,10.0,North,19.6,24.2,N/A,,Overcast,360,2013-12-04 02:10:00
7:30 PM,19.4,10.4,68,29.76,10.0,North,15.0,25.3,N/A,,Overcast,10,2013-12-04 02:30:00
7:50 PM,19.4,10.4,68,29.77,10.0,North,15.0,19.6,N/A,,Overcast,10,2013-12-04 02:50:00
8:10 PM,19.4,10.4,68,29.77,10.0,North,20.7,28.8,N/A,,Overcast,10,2013-12-04 03:10:00
8:30 PM,19.4,10.4,68,29.77,10.0,North,11.5,23.0,N/A,,Overcast,10,2013-12-04 03:30:00
8:50 PM,19.4,10.4,68,29.78,10.0,North,15.0,-,N/A,,Overcast,10,2013-12-04 03:50:00
9:10 PM,19.4,10.4,68,29.78,7.0,North,18.4,24.2,N/A,Snow,Light Snow,360,2013-12-04 04:10:00
9:30 PM,17.6,10.4,73,29.77,5.0,North,17.3,26.5,N/A,Snow,Light Snow,10,2013-12-04 04:30:00
9:50 PM,17.6,12.2,79,29.77,4.0,North,18.4,-,N/A,Snow,Light Snow,10,2013-12-04 04:50:00
10:10 PM,17.6,10.4,73,29.76,10.0,NNE,15.0,20.7,N/A,Snow,Light Snow,20,2013-12-04 05:10:00
10:30 PM,17.6,10.4,73,29.77,10.0,North,12.7,23.0,N/A,,Overcast,10,2013-12-04 05:30:00
10:50 PM,17.6,8.6,68,29.76,10.0,North,17.3,24.2,N/A,,Overcast,10,2013-12-04 05:50:00
11:10 PM,17.6,8.6,68,29.78,10.0,North,16.1,25.3,N/A,Snow,Light Snow,10,2013-12-04 06:10:00
11:30 PM,17.6,10.4,73,29.78,5.0,North,17.3,21.9,N/A,Snow,Light Snow,360,2013-12-04 06:30:00
11:50 PM,15.8,8.6,73,29.77,10.0,North,13.8,21.9,N/A,Snow,Light Snow,10,2013-12-04 06:50:00